This is the latest recevied weather packets stored in our database for station/object W7TJC. If no packets are shown the sender has not sent any weather packets the latest 10 day(s).
| Time | Temp. | Humidity | Pressure | Rain* | Wind** | Luminosity | Snow |
|---|---|---|---|---|---|---|---|
| 1777994329 | 12.22° C | 85% | 1016.9 hPa | 0 mm | - | 23 W/m² | - |
| 1777994026 | 12.22° C | 84% | 1016.9 hPa | 0 mm | - | 19 W/m² | - |
| 1777993724 | 12.22° C | 85% | 1016.7 hPa | 0 mm | - | 20 W/m² | - |
| 1777993421 | 12.22° C | 85% | 1016.7 hPa | 0 mm | - | 19 W/m² | - |
| 1777993121 | 12.22° C | 85% | 1016.5 hPa | 0 mm | - | 19 W/m² | - |
| 1777992819 | 12.22° C | 86% | 1016.5 hPa | 0 mm | - | 18 W/m² | - |
| 1777992516 | 12.22° C | 86% | 1016.5 hPa | 0 mm | - | 17 W/m² | - |
| 1777992215 | 12.22° C | 87% | 1016.5 hPa | 0 mm | - | 12 W/m² | - |
| 1777991911 | 12.22° C | 86% | 1016.6 hPa | 0 mm | - | 9 W/m² | - |
| 1777991609 | 12.22° C | 87% | 1016.4 hPa | 0 mm | - | 7 W/m² | - |
| 1777991306 | 12.22° C | 87% | 1016.2 hPa | 0 mm | - | 7 W/m² | - |
| 1777991004 | 12.22° C | 87% | 1016.3 hPa | 0 mm | - | 12 W/m² | - |
| 1777990701 | 12.22° C | 87% | 1016.3 hPa | 0 mm | - | 11 W/m² | - |
| 1777990398 | 11.67° C | 87% | 1016.1 hPa | 0 mm | - | 8 W/m² | - |
| 1777989791 | 12.22° C | 87% | 1016.3 hPa | 0 mm | - | 4 W/m² | - |
| 1777989488 | 12.22° C | 87% | 1016.2 hPa | 0 mm | - | 3 W/m² | - |
| 1777989184 | 11.67° C | 88% | 1016.3 hPa | 0 mm | - | 3 W/m² | - |
| 1777988880 | 11.67° C | 88% | 1016 hPa | 0 mm | - | 2 W/m² | - |
| 1777988577 | 11.67° C | 88% | 1015.9 hPa | 0 mm | - | 2 W/m² | - |
| 1777988274 | 11.67° C | 88% | 1016 hPa | 0 mm | - | 1 W/m² | - |
| 1777987970 | 11.67° C | 88% | 1016 hPa | 0 mm | - | 0 W/m² | - |
| 1777987666 | 11.67° C | 88% | 1015.7 hPa | 0 mm | - | 1 W/m² | - |
| 1777987364 | 11.67° C | 88% | 1015.7 hPa | 0 mm | - | 0 W/m² | - |
| 1777987061 | 11.67° C | 88% | 1015.8 hPa | 0 mm | - | 0 W/m² | - |
| 1777986758 | 11.67° C | 88% | 1015.7 hPa | 0 mm | - | 0 W/m² | - |
* Rain latest hour (hover to see other rain measurements)
** Current wind speed in m/s (hover to see current wind gust speed)